Weather History for LHBP - June, 2012

Change the Weather History Date:

Sunday, June 24, 2012

  Actual Average Record
Temperature  
Mean Temperature 73 °F -  
Max Temperature 84 °F 77 °F 95 °F (2002)
Min Temperature 62 °F 56 °F 50 °F (1999)
Cooling Degree Days 8    
Growing Degree Days 23 (Base 50)    
Moisture  
Dew Point 55 °F    
Average Humidity 53    
Maximum Humidity 82    
Minimum Humidity 32    
Precipitation  
Precipitation 0.00 in - - ()
Sea Level Pressure  
Sea Level Pressure 30.08 in    
Wind  
Wind Speed 4 mph ()    
Max Wind Speed 12 mph    
Max Gust Speed -    
Averages and records for this station are not official NWS values.
T = Trace of Precipitation, MM = Missing Value Source: Averaged Metar Reports

Daily Weather History Graph

Daily Weather History Graph

Search for Another Location

Airport or City:

Trip Planner

Search our weather history database for the weather conditions in past years. The results will help you decide how hot, cold, wet, or windy it might be!

Date:

Astronomy

Jun. 24, 2012 Rise Set
Actual Time 4:46 AM CEST 8:44 PM CEST
Civil Twilight 4:06 AM CEST 9:24 PM CEST
Nautical Twilight 3:10 AM CEST 10:20 PM CEST
Astronomical Twilight 1:42 AM CEST 11:47 PM CEST
Moon 9:53 AM CEST (6/24) 11:09 PM CEST (6/24)
Length of Visible Light 17h 18m
Length of Day
15h 57m
Waxing Crescent, 22% of the Moon is Illuminated
Jun 24
Waxing Crescent
Jun 27
First Quarter
Jul 3
Full
Jul 11
Last Quarter
Jul 19
New

Hourly Weather History & Observations

Time (CEST) Temp. Heat Index Dew Point Humidity Pressure Visibility Wind Dir Wind Speed Gust Speed Precip Events Conditions
12:00 AM 71.6 °F - 55.4 °F 57% 30.18 in - NE 4.6 mph - N/A   Clear
12:30 AM 68.0 °F - 55.4 °F 64% 30.15 in - Variable 3.5 mph - N/A   Clear
1:00 AM 69.8 °F - 55.4 °F 60% 30.15 in - Variable 3.5 mph - N/A   Clear
1:30 AM 66.2 °F - 57.2 °F 73% 30.15 in - Variable 1.2 mph - N/A   Clear
2:00 AM 64.4 °F - 57.2 °F 77% 30.15 in - Variable 1.2 mph - N/A   Clear
2:30 AM 62.6 °F - 57.2 °F 82% 30.15 in - Calm Calm - N/A   Clear
3:00 AM 62.6 °F - 55.4 °F 77% 30.15 in - WNW 4.6 mph - N/A   Clear
3:30 AM 64.4 °F - 55.4 °F 73% 30.15 in - NNW 6.9 mph - N/A   Clear
4:00 AM 64.4 °F - 55.4 °F 73% 30.15 in - NNW 9.2 mph - N/A   Clear
4:30 AM 64.4 °F - 55.4 °F 73% 30.15 in - NNW 8.1 mph - N/A   Clear
5:00 AM 62.6 °F - 55.4 °F 77% 30.15 in - Variable 2.3 mph - N/A   Clear
5:30 AM 62.6 °F - 55.4 °F 77% 30.15 in - Variable 2.3 mph - N/A   Clear
6:00 AM 62.6 °F - 57.2 °F 82% 30.15 in - Variable 1.2 mph - N/A   Clear
6:30 AM 66.2 °F - 55.4 °F 68% 30.15 in - Variable 1.2 mph - N/A   Clear
7:00 AM 68.0 °F - 57.2 °F 68% 30.15 in - WNW 4.6 mph - N/A   Clear
7:30 AM 69.8 °F - 55.4 °F 60% 30.15 in - Variable 3.5 mph - N/A   Clear
8:00 AM 73.4 °F - 55.4 °F 53% 30.15 in - Variable 2.3 mph - N/A   Clear
8:30 AM 73.4 °F - 53.6 °F 50% 30.15 in - Variable 3.5 mph - N/A   Clear
9:00 AM 75.2 °F - 55.4 °F 50% 30.15 in - East 4.6 mph - N/A   Clear
9:30 AM 77.0 °F - 55.4 °F 47% 30.15 in - SE 5.8 mph - N/A   Clear
10:00 AM 77.0 °F - 53.6 °F 44% 30.15 in - ESE 6.9 mph - N/A   Clear
10:30 AM 78.8 °F - 51.8 °F 39% 30.12 in - East 5.8 mph - N/A   Clear
11:00 AM 78.8 °F - 50.0 °F 36% 30.12 in - ENE 4.6 mph - N/A   Clear
11:30 AM 78.8 °F - 51.8 °F 39% 30.12 in - South 5.8 mph - N/A   Clear
12:00 PM 80.6 °F 80.3 °F 53.6 °F 39% 30.12 in - East 8.1 mph - N/A   Clear
12:30 PM 80.6 °F 80.3 °F 53.6 °F 39% 30.09 in - SW 5.8 mph - N/A   Clear
1:00 PM 80.6 °F - 50.0 °F 34% 30.09 in - Variable 3.5 mph - N/A   Clear
1:30 PM 82.4 °F - 51.8 °F 35% 30.06 in - East 6.9 mph - N/A   Clear
2:00 PM 80.6 °F 80.3 °F 53.6 °F 39% 30.06 in - ESE 6.9 mph - N/A   Clear
2:30 PM 82.4 °F 81.4 °F 53.6 °F 37% 30.06 in - ESE 4.6 mph - N/A   Clear
3:00 PM 84.2 °F - 51.8 °F 33% 30.04 in - SW 9.2 mph - N/A   Clear
3:30 PM 82.4 °F - 50.0 °F 32% 30.04 in - South 11.5 mph - N/A   Clear
4:00 PM 82.4 °F - 50.0 °F 32% 30.04 in - South 8.1 mph - N/A   Clear
4:30 PM 84.2 °F - 51.8 °F 33% 30.01 in - SSW 5.8 mph - N/A   Clear
5:00 PM 84.2 °F - 51.8 °F 33% 30.01 in - SSE 8.1 mph - N/A   Clear
5:30 PM 84.2 °F 82.8 °F 53.6 °F 35% 30.01 in - SSE 8.1 mph - N/A   Clear
6:00 PM 84.2 °F 82.8 °F 53.6 °F 35% 29.98 in - SW 4.6 mph - N/A   Clear
6:30 PM 82.4 °F 81.4 °F 53.6 °F 37% 29.98 in - SSE 6.9 mph - N/A   Clear
7:00 PM 82.4 °F 81.4 °F 53.6 °F 37% 29.98 in - SE 8.1 mph - N/A   Clear
7:30 PM 82.4 °F 81.4 °F 53.6 °F 37% 29.98 in - SSE 8.1 mph - N/A   Clear
8:00 PM 80.6 °F 80.5 °F 55.4 °F 42% 29.98 in - SSE 8.1 mph - N/A   Clear
8:30 PM 78.8 °F - 55.4 °F 44% 29.95 in - SSE 6.9 mph - N/A   Clear
9:00 PM 73.4 °F - 57.2 °F 57% 29.95 in - SE 5.8 mph - N/A   Clear
9:30 PM 69.8 °F - 57.2 °F 64% 29.95 in - SE 5.8 mph - N/A   Clear
10:00 PM 68.0 °F - 59.0 °F 73% 29.95 in - East 5.8 mph - N/A   Clear
10:30 PM 69.8 °F - 59.0 °F 68% 29.95 in - East 6.9 mph - N/A   Clear
11:00 PM 68.0 °F - 57.2 °F 68% 29.95 in - ESE 4.6 mph - N/A   Clear
11:30 PM 69.8 °F - 57.2 °F 64% 29.95 in - Variable 3.5 mph - N/A   Clear